STARLINK-32289 (60737 NORAD) Tracking and Keplerian Element Data

This shows tracking and keplerian element data for the satellite.

Feedback or suggestion? Click here.




ElementValue
Catalog60737
NameSTARLINK-32289
Epoch Orbit832
Epoch Day286.81390141
Epoch Year2024
RAAN130.9309
Inclination53.1616
Eccentricity0.0001311
Argument of Perigee113.1016
Mean Anonmoly247.0123
Mean Motion15.30202271
Decay Rate9E-08
L11 60737U 24152T 24286.81390141 .00000009 00000+0 12435-4 0 9993
L22 60737 53.1616 130.9309 0001311 113.1016 247.0123 15.30202271 8326



Live tracking and technical data element details for STARLINK-32289 (NORAD 60737). STARLINK-32289 can be tracked NOW for your location showing map with azimuth and elevation plus other details from your city location.







IsCatalogInMostPopularTable: catalog: 60737, numindb: 10
Update: records affected: 1



GetName: 60737 STARLINK-32289

Hit Count: updated at: Wed, 04 Dec 2024 19:36:28 GMT